242  
FPUS83 KFGF 182010  
OPUFGF  
PRAIRIE TO PINES WEATHER ROUNDUP  
NATIONAL WEATHER SERVICE EASTERN NORTH DAKOTA/GRAND FORKS ND  
300 PM CDT WED JUL 18 2018  
 
**SATELLITE DATA USED TO AUGMENT SKY COVER AT AUTOMATED STATIONS**  
***** WEATHER ACROSS EASTERN NORTH DAKOTA *****  
 
CITY SKY/WX TMP DP RH WIND PRES REMARKS  
GRAND FORKS PTSUNNY 87 67 51 S14G20 29.93F HX 90  
GRND FORKS AFB FAIR 85 65 50 SW8 29.94F  
GRND FORKS NWS N/A 85 70 60 S6 29.91F HX 90  
BUXTON N/A 83 70 65 SE8 N/A  
DEVILS LAKE FAIR 85 66 53 S10 29.94F  
FARGO FAIR 84 66 54 SE12 29.97F  
WAHPETON ARPT FAIR 79 63 57 S10 29.99S  

 
 
***** WEATHER ACROSS CENTRAL AND WESTERN NORTH DAKOTA *****  
 
CITY SKY/WX TMP DP RH WIND PRES REMARKS  
JAMESTOWN FAIR 81 63 54 S13 29.96S  
BISMARCK FAIR 82 62 50 SE8 29.93F  
MINOT FAIR 86 67 52 S12 29.90F  
MINOT AFB FAIR 81 71 70 S8 29.88S  
GARRISON N/A 77 64 64 SW7 29.93F  
WILLISTON FAIR 84 62 47 S12 29.91F  
DICKINSON LGT RAIN 67 63 87 E14 29.96S  
HETTINGER CLOUDY 70 64 81 E14 29.93F  

 
 
***** OTHER OBSERVATIONS NORTHEAST NORTH DAKOTA *****  
 
CITY SKY/WX TMP DP RH WIND PRES REMARKS  
WALHALLA FAIR 84 68 58 SE8G16 29.92F  
LANGDON FAIR 86 64 48 S12G18 29.95F  
CAVALIER FAIR 84 68 58 S10 29.92F  
GRAFTON FAIR 82 68 61 S12 29.95F  
CANDO FAIR 82 73 74 S9G16 29.94F  
FORT TOTTEN N/A 84 67 56 S7 29.95S  
ROLLA FAIR 79 70 73 SE9 29.94F  
RUGBY FAIR 82 72 69 S8 29.91F  
***** THE ABOVE OBSERVATIONS ARE NON NWS ARE NOT QUALITY  
CONTROLLED AND MAY MIS-REPORT RAIN FOR SNOW...  

 
 
***** OTHER OBSERVATIONS SOUTHEAST NORTH DAKOTA *****  
 
CITY SKY/WX TMP DP RH WIND PRES REMARKS  
COOPERSTOWN FAIR 81 64 57 S9G17 29.97F  
VALLEY CITY FAIR 81 63 54 S13 29.99F  
OAKES FAIR 81 64 57 S10 29.98F  
GWINNER PTCLDY 79 68 69 CALM 29.98F  
SHEYENNE NWR N/A 82 66 57 S8 29.95S  
BUFFALO N/A 81 62 52 W8 N/A  
WYNDMERE NOT AVBL  
***** THE ABOVE OBSERVATIONS ARE NON NWS ARE NOT QUALITY  
CONTROLLED AND MAY MIS-REPORT RAIN FOR SNOW...  

 
 
***** WEATHER ACROSS NORTHERN MINNESOTA *****  
 
CITY SKY/WX TMP DP RH WIND PRES REMARKS  
FLAG ISLAND NOT AVBL  
WARROAD FAIR 81 55 41 S5 29.98F  
ROSEAU FAIR 84 54 34 S9 29.97F  
HALLOCK FAIR 84 66 54 S9G16 29.93F  
THF RVR FALLS FAIR 80 66 62 S12 29.99F  
HALSTAD N/A 82 68 63 S9 N/A  
FOSSTON FAIR 79 64 61 S10 30.01S  
BAUDETTE FAIR 81 57 43 S10 29.99F  
WASKISH FAIR 79 61 53 W7 30.01F  
CROOKSTON FAIR 82 68 61 S10 29.97S  

 
***** WEATHER ACROSS CENTRAL AND WEST MINNESOTA *****  
 
CITY SKY/WX TMP DP RH WIND PRES REMARKS  
BEMIDJI FAIR 80 62 54 S9 30.02F  
PARK RAPIDS FAIR 79 61 53 S10 30.03F  
WADENA FAIR 79 64 61 SE9 30.03F  
DETROIT LAKES FAIR 79 63 57 S10 30.03F  
MOORHEAD FAIR 81 66 61 S9 29.98F  
FERGUS FALLS FAIR 79 66 65 S12 30.01S  
ELBOW LAKE FAIR 76 66 69 SE12 30.02F  
MORRIS MN FAIR 81 68 65 SE12 30.00F  
STAPLES FAIR 79 61 53 S6 30.04F  
WHEATON FAIR 81 66 61 SE9 30.00F  

 
***** WEATHER ELSEWHERE ACROSS MINNESOTA *****  
 
CITY SKY/WX TMP DP RH WIND PRES REMARKS  
DULUTH FAIR 79 57 46 SW8 30.06S  
INTRNTL FALLS FAIR 81 56 42 SW6 30.01F  
ELY FAIR 79 52 38 SW5 30.03F  
CLOQUET FAIR 79 52 38 CALM 30.06S  
BRAINERD FAIR 79 60 52 SE6 30.05F  
HIBBING FAIR 77 57 50 W6 30.04F  
ALEXANDRIA FAIR 80 64 58 SE9 30.05F  
SAINT CLOUD SUNNY 79 61 53 S9 30.05S  
MINNEAPOLIS PTSUNNY 80 59 48 SE6 30.05F  

 
 
***** WEATHER ACROSS SOUTH DAKOTA *****  
 
CITY SKY/WX TMP DP RH WIND PRES REMARKS  
SIOUX FALLS PTSUNNY 81 65 58 S14 30.00F  
BROOKINGS FAIR 80 64 58 SE14 30.01F  
WATERTOWN FAIR 78 61 55 SE15G24 30.00F  
HURON CLOUDY 76 68 76 SE10 29.94F  
SISSETON N/A 82 68 62 SE14 29.97F  
ABERDEEN FAIR 79 64 60 SE13 29.96F  
MITCHELL LGT RAIN 76 70 82 SE10 29.96F  
PIERRE FAIR 80 67 64 SE14G24 29.89F  
MOBRIDGE LGT RAIN 72 67 84 SE7 29.92F  
RAPID CITY FAIR 79 65 62 S8 29.95F  

 
 
***** SOME WEATHER IN NEARBY STATES *****  
 
CITY SKY/WX TMP DP RH WIND PRES REMARKS  
GLASGOW MT FAIR 91 53 27 MISG 29.88F  
GREAT FALLS MT FAIR 93 39 15 W12G18 29.96F  
CHEYENNE WY FAIR 87 31 13 NW22G33 30.19F  
SCOTTSBLUFF NE FAIR 85 63 47 W7 30.04F  
OMAHA NE PTSUNNY 85 68 56 SE16G22 29.98F  
DES MOINES IA FAIR 85 63 47 E10G21 30.00F  
DAVENPORT IA PTSUNNY 79 64 60 S8 30.08F  
CHICAGO IL FAIR 79 51 37 E9 30.11F  
EAU CLAIRE WI FAIR 79 53 40 VRB6 30.06F  
LA CROSSE WI FAIR 83 57 41 SE3 30.06S  

 
 
***** SOME NATIONAL WEATHER *****  
 
CITY SKY/WX TMP DP RH WIND PRES REMARKS  
LA GUARDIA NY FAIR 84 56 38 N12 29.88F  
RALEIGH NC PTSUNNY 88 58 36 VRB6 29.95F  
ATLANTA GA FAIR 92 70 48 NW9 29.94F HX 97  
NEW ORLEANS LA PTSUNNY 81 76 84 S10 29.97F  
OKLAHOMA CITY CLOUDY 84 73 69 SE3 29.96F HX 90  
ALBUQUERQUE NM FAIR 92 53 26 N8 30.20F  
SALT LAKE CITY FAIR 94 35 12 NW8G20 30.12F  
LOS ANGELES CA PTSUNNY 74 66 76 W7 30.01F  
BOISE ID FAIR 93 38 14 NW12 30.06F  
SEATTLE WA FAIR 70 55 59 S8 30.20F  

 
 
*** WEATHER ACROSS MANITOBA...SASKATCHEWAN AND ONTARIO ***  
***ONTARIO***  
 
CITY SKY/WX TMP DP RH WIND PRES REMARKS  
GERALDTON MOSUNNY 77 54 44 SW15G23 29.94F SMOKE  
THUNDER BAY MOSUNNY 82 57 42 SW12G17 29.98F  
SIOUX LOOKOUT MOSUNNY 82 55 39 SW8 29.95F  
TORONTO MOSUNNY 75 55 50 SE8 30.04F  
BIG TROUT LK MOSUNNY 82 59 44 W15G25 29.70F  
PICKLE LAKE MOSUNNY 84 55 37 W17G24 29.84F  
DRYDEN SUNNY 82 48 30 W16G24 29.97F  
KENORA NOT AVBL  

 
*** MANITOBA***  
 
CITY SKY/WX TMP DP RH WIND PRES REMARKS  
BRANDON PTSUNNY 84 64 51 S12 29.89F  
DAUPHIN SUNNY 88 59 37 SW8 29.84F  
ISLAND LAKE PTSUNNY 82 55 39 W10 29.80S  
PILOT MOUND N/A 81 66 61 S13 N/A  
THE PAS PTSUNNY 79 57 47 NE5 29.80S  
THOMPSON MOSUNNY 79 46 31 W13G21 29.80F  
WINNIPEG MOSUNNY 86 57 37 S16 29.92F  
CHURCHILL PTSUNNY 70 55 60 NW14 29.65R  
GILLAM PTSUNNY 75 54 46 W14 29.74S  

 
***SASKATCHEWAN***  
 
CITY SKY/WX TMP DP RH WIND PRES REMARKS  
ESTEVAN CLOUDY 86 66 51 E7 29.88F  
KINDERSLEY CLOUDY 75 64 69 N13 29.83F  
LLOYDMINSTER CLOUDY 70 59 68 N7 29.89R  
PRINCE ALBERT MOSUNNY 84 63 48 VRB2 29.78F  
REGINA PTSUNNY 84 55 37 S15G22 29.86S  
YORKTON PTSUNNY 84 64 51 S10G18 29.83F  
N. BATTLEFORD MOSUNNY 72 64 78 NW13G20 29.85F  
 
CLICK HERE TO GO TO PREVIOUS BULLETINS.

The Nexlab ND Page
The Nexlab MN Page Main Text Page